RADUGA 29 [-]

Last updated on July 6, 2021, 3:35 p.m. UTC

1 22557U 93013A   21186.58429711  .00000110  00000-0  00000-0 0  9994
2 22557  14.7728 359.2616 0007951  88.1993  92.1016  1.00180644103551
UTC
Height (km)
Latitude
Longitude
Inclination
Orbital Period
UTC large
Height (km)
Speed (km/s)
/
Latitude / Longitude
Inclination (degrees)
Orbital Period (minutes)
Azimuth
Elevation
Range (km)
Doppler Factor
iOS Compass Heading
iOS Angle